{"data":{"norad_id":65149,"intl_designator":"2025-171T","name":"KUIPER-00111","alt_names":[],"object_type":"PAYLOAD","status":"ACTIVE","operator":null,"country":"US","launch_date":"2025-08-11","launch_site_code":"AFETR","launch_vehicle":null,"mission":null,"orbit_class":"UNKNOWN","rcs_meters":null,"size_class":null,"mass_kg":null,"dimensions":null,"purposes":[],"wikipedia_slug":null,"has_3d_model":false,"image_url":null,"decayed_at":null,"tle_current":{"epoch":"2026-05-25T02:31:12.692928Z","epoch_age_seconds":62630,"freshness":"FRESH","line1":"1 65149U 25171T   26145.10500802  .00002121  00000+0  30710-3 0  9994","line2":"2 65149  51.8959 195.1179 0000417  86.3345 273.7665 14.79938182 43991","mean_motion":14.79938182,"eccentricity":4.17e-5,"inclination_deg":51.8959,"raan_deg":195.1179,"arg_perigee_deg":86.3345,"mean_anomaly_deg":273.7665,"bstar":0.0003071,"rev_number":4399,"period_min":97.301361469975,"perigee_km":629.22705166633,"apogee_km":629.81149019933,"semimajor_km":7007.6562709328,"source":"CELESTRAK","updated_at":"2026-05-25T13:38:05.169732Z"}}}